This is the latest recevied weather packets stored in our database for station/object WD5U-1. If no packets are shown the sender has not sent any weather packets the latest 10 day(s).
| Time | Temp. | Humidity | Pressure | Rain* | Wind** | Luminosity | Snow |
|---|---|---|---|---|---|---|---|
| 1777817904 | 19.44° C | 63% | 1022.2 hPa | 0 mm | - | - | - |
| 1777815262 | 16.67° C | 71% | 1022 hPa | 0 mm | - | - | - |
| 1777814078 | 15.56° C | 72% | 1022.1 hPa | 0 mm | - | - | - |
| 1777812743 | 14.44° C | 76% | 1022 hPa | 0 mm | - | - | - |
| 1777812621 | 14.44° C | 76% | 1021.8 hPa | 0 mm | - | - | - |
| 1777812377 | 13.89° C | 76% | 1021.8 hPa | 0 mm | - | - | - |
| 1777812023 | 13.89° C | 76% | 1021.7 hPa | 0 mm | - | - | - |
| 1777811902 | 13.89° C | 75% | 1021.7 hPa | 0 mm | - | - | - |
| 1777810942 | 13.33° C | 76% | 1021.7 hPa | 0 mm | - | - | - |
| 1777810697 | 12.78° C | 76% | 1021.6 hPa | 0 mm | - | - | - |
| 1777810576 | 12.78° C | 76% | 1021.5 hPa | 0 mm | - | - | - |
| 1777809624 | 12.22° C | 79% | 1021.4 hPa | 0 mm | - | - | - |
| 1777809262 | 12.22° C | 79% | 1021.4 hPa | 0 mm | - | - | - |
| 1777809140 | 12.22° C | 79% | 1021.2 hPa | 0 mm | - | - | - |
| 1777808663 | 12.22° C | 79% | 1021.2 hPa | 0 mm | - | - | - |
| 1777807600 | 11.67° C | 80% | 1021.2 hPa | 0 mm | - | - | - |
| 1777807228 | 11.67° C | 80% | 1021.3 hPa | 0 mm | - | - | - |
| 1777806618 | 12.22° C | 78% | 1021.1 hPa | 0 mm | - | - | - |
| 1777806142 | 12.22° C | 79% | 1021.1 hPa | 0 mm | - | - | - |
| 1777805899 | 12.22° C | 79% | 1021.1 hPa | 0 mm | - | - | - |
| 1777805546 | 12.22° C | 79% | 1021 hPa | 0 mm | - | - | - |
| 1777804961 | 12.22° C | 79% | 1020.9 hPa | 0 mm | - | - | - |
| 1777804219 | 12.22° C | 78% | 1020.9 hPa | 0 mm | - | - | - |
| 1777803865 | 12.22° C | 78% | 1021.1 hPa | 0 mm | - | - | - |
| 1777803379 | 12.78° C | 77% | 1020.9 hPa | 0 mm | - | - | - |
* Rain latest hour (hover to see other rain measurements)
** Current wind speed in m/s (hover to see current wind gust speed)